Home   Weather   Montreal   Past weeks

Flag for Canada Past Weather in Montreal, Quebec, Canada — Yesterday and Last 2 Weeks

Now
70 °F

Broken clouds.


Feels Like: 70 °F
Forecast: 59 / 73 °F
Wind: 7 mph from West

Location: Montreal - Pierre Elliot Trudeau International Aiport

Current Time: Jul 27, 2017 at 8:51:38 pm

Latest Report: Jul 27, 2017 at 8:00 pm


Visibility: 15 mi

Pressure: 29.80 "Hg

Humidity: 83%

Dew Point: 64 °F

Location of MontrealLocation

Past Weather in Montreal — Graph

°F

Montreal Temperature Yesterday

Maximum temperature yesterday: 75 °F (at 10:00 am)
Minimum temperature yesterday: 57 °F (at 6:00 am)
Average temperature yesterday: 68 °F

High & Low Weather Summary for the Past Weeks

 TemperatureHumidityPressure
High82 °F (Jul 18, 3:00 pm)100% (Jul 15, 1:26 am)30.24 "Hg (Jul 15, 1:26 am)
Low57 °F (Jul 13, 3:00 am)31% (Jul 23, 2:00 pm)29.76 "Hg (Jul 21, 4:00 pm)
Average69 °F75%29.95 "Hg
* Reported Jul 12 7:00 pm — Jul 27 7:22 pm, Montreal. Weather by CustomWeather, © 2017

Note: Actual official high and low records may vary slightly from our data, if they occured in-between our weather recording intervals... More about our weather records

Advertising

Montreal Weather History for the Previous 24 Hours

Scroll right to see more
 ConditionsComfort  
Time TempWeatherWind HumidityBarometerVisibility
7:22 pm
Thu, Jul 27
72 °FScattered showers. Broken clouds.8 mph78%29.79 "Hg15 mi
7:00 pm75 °FSprinkles. Broken clouds.17 mph65%29.78 "Hg15 mi
6:00 pm77 °FPassing clouds.14 mph61%29.77 "Hg30 mi
5:00 pm79 °FPassing clouds.15 mph58%29.77 "Hg30 mi
4:00 pm77 °FPassing clouds.17 mph61%29.78 "Hg30 mi
3:00 pm77 °FBroken clouds.15 mph61%29.80 "Hg15 mi
2:00 pm75 °FMostly cloudy.12 mph65%29.81 "Hg15 mi
1:00 pm75 °FBroken clouds.10 mph65%29.82 "Hg15 mi
12:00 pm73 °FPartly sunny.13 mph74%29.83 "Hg15 mi
11:00 am72 °FPartly sunny.14 mph83%29.84 "Hg15 mi
10:00 am70 °FPartly sunny.12 mph83%29.85 "Hg15 mi
9:00 am68 °FMostly cloudy.10 mph88%29.86 "Hg15 mi
8:29 am66 °FOvercast.10 mph94%29.87 "Hg15 mi
8:00 am66 °FDrizzle. Low clouds.12 mph94%29.87 "Hg10 mi
7:16 am64 °FDrizzle. Fog.10 mph94%29.88 "Hg3 mi
7:00 am64 °FSprinkles. Fog.10 mph94%29.88 "Hg6 mi
6:38 am64 °FLow clouds.8 mph94%29.89 "Hg12 mi
6:00 am64 °FSprinkles. More clouds than sun.15 mph94%29.89 "Hg8 mi
5:43 am66 °FSprinkles. Overcast.12 mph88%29.89 "Hg8 mi
5:00 am66 °FOvercast.10 mph83%29.90 "Hg15 mi
4:00 am68 °FOvercast.13 mph78%29.90 "Hg15 mi
3:00 am68 °FSprinkles. Overcast.12 mph78%29.91 "Hg15 mi
2:00 am68 °FOvercast.10 mph83%29.93 "Hg15 mi
1:50 am68 °FSprinkles. Overcast.10 mph83%29.93 "Hg15 mi
1:00 am68 °FMostly cloudy.8 mph83%29.95 "Hg15 mi
12:00 am68 °FOvercast.8 mph83%29.97 "Hg15 mi
11:00 pm
Wed, Jul 26
68 °FOvercast.7 mph83%29.99 "Hg15 mi
10:00 pm70 °FPartly cloudy.8 mph73%29.99 "Hg15 mi
9:34 pm70 °FOvercast.9 mph78%30.01 "Hg15 mi
9:00 pm70 °FSprinkles. Overcast.8 mph73%30.02 "Hg15 mi
8:00 pm70 °FMostly cloudy.7 mph73%30.05 "Hg15 mi
Weather by CustomWeather, © 2017

See weather overviewHow to use our weather pages